Date String (YYYY-MM-DD hh:mm:ss) UTC,Instrument flags,Ambient pressure (hPa),Sample flow (lpm),Bypass flow (lpm),Sample temperature (°C),Ambient temperature (°C),ASC tube jacket temperature (°C),LED temperature (°C),Box temperature (°C),Sample RH (%),Span deviation,Mass concentration (μg/m³),Mass concentration (μg/m³),Mass concentration (μg/m³)
DateTimeUTC,F1_M11,P_M11,Q1_M11,Q2_M11,T1_M11,T2_M11,T3_M11,T4_M11,T5_M11,U1_M11,ZSPAN_M11,X0_M11,X2_M11,X1_M11
2022-01-09 20:00:00,,0835.4,4.98,0.00,24.6,23.9,00.0,33.4,26.5,11.2,0000.0,0008.23,0005.41,0005.21
2022-01-09 20:01:00,,0835.3,5.01,0.00,24.6,23.9,00.0,33.4,26.6,11.2,0000.0,0008.24,0005.41,0005.21
2022-01-09 20:02:00,,0835.3,4.99,0.00,24.6,23.9,00.0,33.5,26.6,11.2,0000.0,0008.31,0005.44,0005.22
2022-01-09 20:03:00,,0835.3,5.01,0.00,24.6,23.9,00.0,33.5,26.6,11.1,0000.0,0008.34,0005.48,0005.25
2022-01-09 20:04:00,,0835.4,5.00,0.00,24.7,23.9,00.0,33.5,26.6,11.1,0000.0,0008.22,0005.45,0005.26
2022-01-09 20:05:00,,0835.2,5.00,0.00,24.7,23.9,00.0,33.5,26.6,11.1,0000.0,0008.24,0005.47,0005.27
2022-01-09 20:06:00,,0835.3,5.00,0.00,24.7,23.9,00.0,33.5,26.6,11.1,0000.0,0008.01,0005.45,0005.27
2022-01-09 20:07:00,,0835.2,4.99,0.00,24.7,23.9,00.0,33.5,26.5,11.2,0000.0,0008.19,0005.48,0005.29
2022-01-09 20:08:00,,0835.2,5.01,0.00,24.7,23.9,00.0,33.6,26.5,11.1,0000.0,0008.16,0005.49,0005.31
2022-01-09 20:09:00,,0835.2,5.00,0.00,24.7,23.9,00.0,33.6,26.5,11.3,0000.0,0008.13,0005.50,0005.33
2022-01-09 20:10:00,,0835.2,5.02,0.00,24.7,23.8,00.0,33.6,26.5,11.2,0000.0,0008.12,0005.50,0005.34
2022-01-09 20:11:00,,0835.2,4.99,0.00,24.6,23.8,00.0,33.6,26.5,11.1,0000.0,0008.22,0005.52,0005.34
2022-01-09 20:12:00,,0835.2,5.00,0.00,24.6,23.8,00.0,33.6,26.4,11.1,0000.0,0008.34,0005.56,0005.35
2022-01-09 20:13:00,,0835.3,5.02,0.00,24.6,23.8,00.0,33.6,26.4,11.1,0000.0,0008.32,0005.57,0005.37
2022-01-09 20:14:00,,0835.3,4.99,0.00,24.6,23.8,00.0,33.6,26.5,11.2,0000.0,0008.36,0005.59,0005.38
2022-01-09 20:15:00,,0835.2,5.00,0.00,24.6,23.8,00.0,33.6,26.5,11.1,0000.0,0008.42,0005.60,0005.37
2022-01-09 20:16:00,,0835.2,5.00,0.00,24.6,23.8,00.0,33.6,26.4,11.2,0000.0,0008.40,0005.58,0005.35
2022-01-09 20:17:00,,0835.3,4.99,0.00,24.6,23.7,00.0,33.6,26.4,11.2,0000.0,0008.81,0005.58,0005.34
2022-01-09 20:18:00,,0835.3,5.02,0.00,24.6,23.7,00.0,33.5,26.4,11.2,0000.0,0008.99,0005.58,0005.33
2022-01-09 20:19:00,,0835.3,4.99,0.00,24.6,23.7,00.0,33.5,26.4,11.2,0000.0,0009.07,0005.58,0005.32
2022-01-09 20:20:00,,0835.2,5.01,0.00,24.6,23.7,00.0,33.5,26.4,11.2,0000.0,0009.09,0005.57,0005.29
2022-01-09 20:21:00,,0835.3,4.99,0.00,24.6,23.8,00.0,33.5,26.4,11.2,0000.0,0009.36,0005.58,0005.27
2022-01-09 20:22:00,,0835.4,5.01,0.00,24.6,23.8,00.0,33.5,26.4,11.2,0000.0,0009.67,0005.57,0005.26
2022-01-09 20:23:00,,0835.3,4.99,0.00,24.6,23.8,00.0,33.5,26.4,11.2,0000.0,0009.57,0005.54,0005.24
2022-01-09 20:24:00,,0835.3,5.00,0.00,24.6,23.8,00.0,33.5,26.4,11.3,0000.0,0009.58,0005.53,0005.21
2022-01-09 20:25:00,,0835.2,5.01,0.00,24.6,23.8,00.0,33.5,26.4,11.2,0000.0,0009.51,0005.49,0005.19
2022-01-09 20:26:00,,0835.3,4.98,0.00,24.6,23.8,00.0,33.5,26.4,11.3,0000.0,0009.56,0005.49,0005.18
2022-01-09 20:27:00,,0835.3,5.00,0.00,24.6,23.8,00.0,33.5,26.4,11.2,0000.0,0009.64,0005.50,0005.19
2022-01-09 20:28:00,,0835.3,5.01,0.00,24.6,23.8,00.0,33.5,26.5,11.3,0000.0,0009.21,0005.50,0005.20
2022-01-09 20:29:00,,0835.3,5.00,0.00,24.6,23.9,00.0,33.5,26.5,11.3,0000.0,0008.78,0005.48,0005.19
2022-01-09 20:30:00,,0835.4,5.00,0.00,24.6,23.9,00.0,33.5,26.5,11.2,0000.0,0008.71,0005.47,0005.18
2022-01-09 20:31:00,,0835.4,5.00,0.00,24.6,23.9,00.0,33.5,26.5,11.2,0000.0,0008.65,0005.45,0005.18
2022-01-09 20:32:00,,0835.3,5.00,0.00,24.6,23.9,00.0,33.5,26.5,11.2,0000.0,0008.41,0005.41,0005.17
2022-01-09 20:33:00,,0835.3,4.99,0.00,24.6,23.9,00.0,33.5,26.5,11.2,0000.0,0008.07,0005.41,0005.17
2022-01-09 20:34:00,,0835.4,5.01,0.00,24.6,23.9,00.0,33.5,26.5,11.2,0000.0,0007.98,0005.38,0005.18
2022-01-09 20:35:00,,0835.4,5.00,0.00,24.6,23.9,00.0,33.5,26.5,11.4,0000.0,0007.95,0005.37,0005.18
2022-01-09 20:36:00,,0835.3,5.00,0.00,24.7,24.0,00.0,33.6,26.5,11.5,0000.0,0007.98,0005.38,0005.18
2022-01-09 20:37:00,,0835.3,5.00,0.00,24.7,24.0,00.0,33.6,26.6,11.3,0000.0,0007.96,0005.39,0005.18
2022-01-09 20:38:00,,0835.3,5.01,0.00,24.7,24.0,00.0,33.6,26.6,11.2,0000.0,0007.88,0005.38,0005.17
2022-01-09 20:39:00,,0835.3,5.00,0.00,24.7,24.0,00.0,33.6,26.6,11.4,0000.0,0007.89,0005.38,0005.16
2022-01-09 20:40:00,,0835.2,5.00,0.00,24.7,24.0,00.0,33.6,26.6,11.3,0000.0,0007.90,0005.38,0005.16
2022-01-09 20:41:00,,0835.2,5.00,0.00,24.7,24.0,00.0,33.6,26.6,11.2,0000.0,0007.86,0005.37,0005.17
2022-01-09 20:42:00,,0835.2,5.01,0.00,24.7,23.9,00.0,33.6,26.5,11.2,0000.0,0008.48,0005.39,0005.18
2022-01-09 20:43:00,,0835.2,4.99,0.00,24.7,23.9,00.0,33.6,26.5,11.3,0000.0,0008.73,0005.43,0005.19
2022-01-09 20:44:00,,0835.2,5.01,0.00,24.7,23.9,00.0,33.6,26.5,11.4,0000.0,0009.33,0005.43,0005.20
2022-01-09 20:45:00,,0835.2,5.01,0.00,24.7,23.9,00.0,33.6,26.5,11.3,0000.0,0009.49,0005.44,0005.20
2022-01-09 20:46:00,,0835.1,4.99,0.00,24.7,23.9,00.0,33.6,26.5,11.2,0000.0,0009.48,0005.44,0005.20
2022-01-09 20:47:00,,0835.2,5.01,0.00,24.7,23.9,00.0,33.6,26.5,11.3,0000.0,0009.46,0005.43,0005.20
2022-01-09 20:48:00,,0835.2,5.00,0.00,24.6,23.9,00.0,33.6,26.5,11.3,0000.0,0009.41,0005.41,0005.20
2022-01-09 20:49:00,,0835.2,5.00,0.00,24.6,23.8,00.0,33.6,26.4,11.3,0000.0,0009.39,0005.41,0005.21
2022-01-09 20:50:00,,0835.2,5.00,0.00,24.6,23.8,00.0,33.6,26.4,11.3,0000.0,0009.37,0005.40,0005.22
2022-01-09 20:51:00,,0835.3,5.01,0.00,24.6,23.8,00.0,33.6,26.4,11.2,0000.0,0009.39,0005.41,0005.22
2022-01-09 20:52:00,,0835.2,5.00,0.00,24.6,23.7,00.0,33.5,26.3,11.2,0000.0,0009.40,0005.41,0005.20
2022-01-09 20:53:00,,0835.3,5.00,0.00,24.5,23.7,00.0,33.5,26.3,11.3,0000.0,0009.35,0005.40,0005.19
2022-01-09 20:54:00,,0835.2,5.00,0.00,24.5,23.7,00.0,33.5,26.3,11.3,0000.0,0009.17,0005.37,0005.18
2022-01-09 20:55:00,,0835.2,4.99,0.00,24.5,23.6,00.0,33.5,26.3,11.3,0000.0,0008.73,0005.37,0005.17
2022-01-09 20:56:00,,0835.2,5.00,0.00,24.5,23.6,00.0,33.5,26.2,11.3,0000.0,0008.78,0005.35,0005.15
2022-01-09 20:57:00,,0835.2,4.99,0.00,24.4,23.6,00.0,33.5,26.2,11.4,0000.0,0008.73,0005.34,0005.14
2022-01-09 20:58:00,,0835.1,5.01,0.00,24.4,23.6,00.0,33.5,26.3,11.4,0000.0,0008.68,0005.31,0005.12
2022-01-09 20:59:00,,0835.2,5.00,0.00,24.4,23.6,00.0,33.5,26.2,11.4,0000.0,0008.72,0005.31,0005.10
